Time,TemperatureF,DewpointF,PressureIn,WindDirection,WindDirectionDegrees,WindSpeedMPH,WindSpeedGustMPH,Humidity,HourlyPrecipIn,Conditions,Clouds,dailyrainin,SoftwareType,DateUTC
2013-01-09 00:05:00,35.4,26.6,30.20,NW,315,0.2,0.7,70,0.00,,CLR,0.00,VWS V14.01,2013-01-09 06:05:00,
2013-01-09 00:10:00,35.0,26.2,30.20,North,0,0.0,0.2,70,0.00,,CLR,0.00,VWS V14.01,2013-01-09 06:10:00,
2013-01-09 00:15:00,34.9,26.5,30.21,NNW,338,0.0,0.9,71,0.00,,CLR,0.00,VWS V14.01,2013-01-09 06:15:00,
2013-01-09 00:20:00,34.7,26.3,30.21,NW,315,0.2,0.2,71,0.00,,CLR,0.00,VWS V14.01,2013-01-09 06:20:00,
2013-01-09 00:25:00,34.5,26.1,30.21,NNW,338,0.0,0.9,71,0.00,,CLR,0.00,VWS V14.01,2013-01-09 06:25:00,
2013-01-09 00:30:00,34.3,25.9,30.21,NW,315,0.0,0.9,71,0.00,,CLR,0.00,VWS V14.01,2013-01-09 06:30:00,
2013-01-09 00:35:00,34.1,26.0,30.21,North,0,0.0,0.2,72,0.00,,CLR,0.00,VWS V14.01,2013-01-09 06:35:00,
2013-01-09 00:40:00,34.1,26.4,30.21,NNW,338,0.0,0.2,73,0.00,,CLR,0.00,VWS V14.01,2013-01-09 06:40:00,
2013-01-09 00:45:00,34.1,26.4,30.21,NNW,338,0.0,0.2,73,0.00,,CLR,0.00,VWS V14.01,2013-01-09 06:45:00,
2013-01-09 00:50:00,34.1,26.4,30.21,NNW,338,0.0,0.0,73,0.00,,CLR,0.00,VWS V14.01,2013-01-09 06:50:00,
2013-01-09 00:55:00,34.0,26.3,30.22,SSE,158,0.7,0.7,73,0.00,,CLR,0.00,VWS V14.01,2013-01-09 06:55:00,
2013-01-09 01:05:00,33.8,26.1,30.22,NNW,338,0.0,0.0,73,0.00,,CLR,0.00,VWS V14.01,2013-01-09 07:05:00,
2013-01-09 01:10:00,33.6,25.9,30.22,NNW,338,0.0,0.0,73,0.00,,CLR,0.00,VWS V14.01,2013-01-09 07:10:00,
2013-01-09 01:15:00,33.6,25.9,30.22,NNW,338,0.0,0.0,73,0.00,,CLR,0.00,VWS V14.01,2013-01-09 07:15:00,
2013-01-09 01:20:00,33.4,25.7,30.21,NNW,338,0.0,0.0,73,0.00,,CLR,0.00,VWS V14.01,2013-01-09 07:20:00,
2013-01-09 01:25:00,33.4,25.7,30.22,NNW,338,0.0,0.0,73,0.00,,CLR,0.00,VWS V14.01,2013-01-09 07:25:00,
2013-01-09 01:30:00,33.2,25.5,30.22,North,0,0.0,0.0,73,0.00,,CLR,0.00,VWS V14.01,2013-01-09 07:30:00,
2013-01-09 01:35:00,33.1,25.4,30.22,ESE,112,0.9,0.9,73,0.00,,CLR,0.00,VWS V14.01,2013-01-09 07:35:00,
2013-01-09 01:40:00,32.7,25.0,30.22,SE,135,0.0,0.9,73,0.00,,CLR,0.00,VWS V14.01,2013-01-09 07:40:00,
2013-01-09 01:45:00,32.5,24.8,30.22,SE,135,0.0,0.0,73,0.00,,CLR,0.00,VWS V14.01,2013-01-09 07:45:00,
2013-01-09 01:50:00,32.3,24.6,30.22,SE,135,0.0,0.0,73,0.00,,CLR,0.00,VWS V14.01,2013-01-09 07:50:00,
2013-01-09 01:55:00,32.0,24.3,30.23,NNW,338,0.0,0.0,73,0.00,,CLR,0.00,VWS V14.01,2013-01-09 07:55:00,
2013-01-09 02:05:00,31.4,23.8,30.23,ESE,112,0.0,0.0,73,0.00,,CLR,0.00,VWS V14.01,2013-01-09 08:05:00,
2013-01-09 02:10:00,31.3,23.7,30.23,NE,45,0.0,0.0,73,0.00,,CLR,0.00,VWS V14.01,2013-01-09 08:10:00,
2013-01-09 02:15:00,31.1,23.8,30.24,North,0,0.0,0.4,74,0.00,,CLR,0.00,VWS V14.01,2013-01-09 08:15:00,
2013-01-09 02:20:00,30.7,23.7,30.24,North,0,0.0,0.0,75,0.00,,CLR,0.00,VWS V14.01,2013-01-09 08:20:00,
2013-01-09 02:25:00,30.7,23.7,30.24,North,0,0.0,0.0,75,0.00,,CLR,0.00,VWS V14.01,2013-01-09 08:25:00,
2013-01-09 02:30:00,30.5,23.5,30.25,North,0,0.0,0.2,75,0.00,,CLR,0.00,VWS V14.01,2013-01-09 08:30:00,
2013-01-09 02:35:00,30.4,23.4,30.26,North,0,0.0,0.0,75,0.00,,CLR,0.00,VWS V14.01,2013-01-09 08:35:00,
2013-01-09 02:40:00,30.4,23.8,30.26,North,0,0.0,0.0,76,0.00,,CLR,0.00,VWS V14.01,2013-01-09 08:40:00,
2013-01-09 02:45:00,30.2,23.6,30.26,NNW,338,0.0,0.0,76,0.00,,CLR,0.00,VWS V14.01,2013-01-09 08:45:00,
2013-01-09 02:50:00,30.0,23.4,30.27,NNW,338,0.0,0.0,76,0.00,,CLR,0.00,VWS V14.01,2013-01-09 08:50:00,
2013-01-09 02:55:00,29.8,23.2,30.26,NNW,338,0.0,0.0,76,0.00,,CLR,0.00,VWS V14.01,2013-01-09 08:55:00,
2013-01-09 03:05:00,29.6,23.0,30.26,NW,315,0.0,0.0,76,0.00,,CLR,0.00,VWS V14.01,2013-01-09 09:05:00,
2013-01-09 03:10:00,29.5,22.9,30.26,NW,315,0.0,0.0,76,0.00,,CLR,0.00,VWS V14.01,2013-01-09 09:10:00,
2013-01-09 03:15:00,29.3,23.0,30.27,NW,315,0.0,0.0,77,0.00,,CLR,0.00,VWS V14.01,2013-01-09 09:15:00,
2013-01-09 03:20:00,29.3,23.0,30.27,NW,315,0.0,0.0,77,0.00,,CLR,0.00,VWS V14.01,2013-01-09 09:20:00,
2013-01-09 03:25:00,29.3,23.0,30.27,NW,315,0.0,0.0,77,0.00,,CLR,0.00,VWS V14.01,2013-01-09 09:25:00,
2013-01-09 03:30:00,29.3,23.0,30.27,NW,315,0.0,0.0,77,0.00,,CLR,0.00,VWS V14.01,2013-01-09 09:30:00,
2013-01-09 03:35:00,29.1,22.8,30.27,NW,315,0.0,0.0,77,0.00,,CLR,0.00,VWS V14.01,2013-01-09 09:35:00,
2013-01-09 03:40:00,28.9,22.6,30.27,NW,315,0.0,0.0,77,0.00,,CLR,0.00,VWS V14.01,2013-01-09 09:40:00,
2013-01-09 03:45:00,28.7,22.4,30.26,NW,315,0.0,0.0,77,0.00,,CLR,0.00,VWS V14.01,2013-01-09 09:45:00,
2013-01-09 03:50:00,28.6,22.6,30.27,NW,315,0.0,0.0,78,0.00,,CLR,0.00,VWS V14.01,2013-01-09 09:50:00,
2013-01-09 03:55:00,28.4,22.4,30.26,NW,315,0.0,0.0,78,0.00,,CLR,0.00,VWS V14.01,2013-01-09 09:55:00,
2013-01-09 04:05:00,28.2,22.2,30.27,NW,315,0.0,0.0,78,0.00,,CLR,0.00,VWS V14.01,2013-01-09 10:05:00,
2013-01-09 04:10:00,28.2,22.2,30.27,NW,315,0.0,0.0,78,0.00,,CLR,0.00,VWS V14.01,2013-01-09 10:10:00,
2013-01-09 04:15:00,28.2,22.2,30.27,NW,315,0.0,0.0,78,0.00,,CLR,0.00,VWS V14.01,2013-01-09 10:15:00,
2013-01-09 04:20:00,28.2,22.2,30.27,NW,315,0.0,0.0,78,0.00,,CLR,0.00,VWS V14.01,2013-01-09 10:20:00,
2013-01-09 04:25:00,28.2,22.2,30.27,NW,315,0.0,0.0,78,0.00,,CLR,0.00,VWS V14.01,2013-01-09 10:25:00,
2013-01-09 04:30:00,28.2,22.5,30.27,NW,315,0.0,0.0,79,0.00,,CLR,0.00,VWS V14.01,2013-01-09 10:30:00,
2013-01-09 04:35:00,28.2,22.5,30.28,NW,315,0.0,0.0,79,0.00,,CLR,0.00,VWS V14.01,2013-01-09 10:35:00,
2013-01-09 04:40:00,28.2,22.5,30.28,NW,315,0.0,0.0,79,0.00,,CLR,0.00,VWS V14.01,2013-01-09 10:40:00,
2013-01-09 04:45:00,28.0,22.3,30.28,NW,315,0.0,0.0,79,0.00,,CLR,0.00,VWS V14.01,2013-01-09 10:45:00,
2013-01-09 04:50:00,27.8,22.1,30.28,NW,315,0.0,0.0,79,0.00,,CLR,0.00,VWS V14.01,2013-01-09 10:50:00,
2013-01-09 04:55:00,27.7,22.0,30.28,NW,315,0.0,0.0,79,0.00,,CLR,0.00,VWS V14.01,2013-01-09 10:55:00,
2013-01-09 05:05:00,27.7,22.0,30.28,NW,315,0.0,0.0,79,0.00,,CLR,0.00,VWS V14.01,2013-01-09 11:05:00,
2013-01-09 05:10:00,27.7,22.0,30.28,NW,315,0.0,0.0,79,0.00,,CLR,0.00,VWS V14.01,2013-01-09 11:10:00,
2013-01-09 05:15:00,27.5,21.9,30.28,NW,315,0.0,0.0,79,0.00,,CLR,0.00,VWS V14.01,2013-01-09 11:15:00,
2013-01-09 05:20:00,27.5,21.9,30.28,NW,315,0.0,0.0,79,0.00,,CLR,0.00,VWS V14.01,2013-01-09 11:20:00,
2013-01-09 05:25:00,27.5,21.9,30.28,NW,315,0.0,0.0,79,0.00,,CLR,0.00,VWS V14.01,2013-01-09 11:25:00,
2013-01-09 05:30:00,27.5,21.9,30.28,WSW,248,0.0,0.0,79,0.00,,CLR,0.00,VWS V14.01,2013-01-09 11:30:00,
2013-01-09 05:35:00,27.3,21.7,30.28,SW,225,0.0,0.0,79,0.00,,CLR,0.00,VWS V14.01,2013-01-09 11:35:00,
2013-01-09 05:40:00,27.1,21.5,30.28,SSE,158,0.4,0.7,79,0.00,,CLR,0.00,VWS V14.01,2013-01-09 11:40:00,
2013-01-09 05:45:00,27.1,21.5,30.28,SSE,158,0.0,1.1,79,0.00,,CLR,0.00,VWS V14.01,2013-01-09 11:45:00,
2013-01-09 05:50:00,26.9,21.6,30.29,SSE,158,0.0,0.0,80,0.00,,CLR,0.00,VWS V14.01,2013-01-09 11:50:00,
2013-01-09 05:55:00,26.9,21.6,30.29,North,0,0.0,0.0,80,0.00,,CLR,0.00,VWS V14.01,2013-01-09 11:55:00,
2013-01-09 06:05:00,26.9,21.6,30.30,SSE,158,0.0,0.4,80,0.00,,CLR,0.00,VWS V14.01,2013-01-09 12:05:00,
2013-01-09 06:10:00,26.9,21.6,30.30,SSE,158,0.0,0.0,80,0.00,,CLR,0.00,VWS V14.01,2013-01-09 12:10:00,
2013-01-09 06:15:00,26.8,21.5,30.30,SSE,158,0.0,0.0,80,0.00,,CLR,0.00,VWS V14.01,2013-01-09 12:15:00,
2013-01-09 06:20:00,26.8,21.5,30.30,SSE,158,0.9,0.9,80,0.00,,CLR,0.00,VWS V14.01,2013-01-09 12:20:00,
2013-01-09 06:25:00,26.8,21.5,30.31,SSE,158,0.0,0.9,80,0.00,,CLR,0.00,VWS V14.01,2013-01-09 12:25:00,
2013-01-09 06:30:00,26.8,21.8,30.31,SSE,158,0.0,0.0,81,0.00,,CLR,0.00,VWS V14.01,2013-01-09 12:30:00,
2013-01-09 06:35:00,26.6,21.6,30.32,NW,315,0.0,0.0,81,0.00,,CLR,0.00,VWS V14.01,2013-01-09 12:35:00,
2013-01-09 06:40:00,26.6,21.6,30.31,NNW,338,0.0,0.0,81,0.00,,CLR,0.00,VWS V14.01,2013-01-09 12:40:00,
2013-01-09 06:45:00,26.6,21.6,30.32,NNW,338,0.0,0.0,81,0.00,,CLR,0.00,VWS V14.01,2013-01-09 12:45:00,
2013-01-09 06:50:00,26.6,21.6,30.31,NNW,338,0.4,0.4,81,0.00,,CLR,0.00,VWS V14.01,2013-01-09 12:50:00,
2013-01-09 06:55:00,26.6,21.9,30.31,NNW,338,0.0,0.4,82,0.00,,CLR,0.00,VWS V14.01,2013-01-09 12:55:00,
2013-01-09 07:05:00,26.8,22.0,30.32,NNW,338,0.0,0.0,82,0.00,,CLR,0.00,VWS V14.01,2013-01-09 13:05:00,
2013-01-09 07:10:00,26.8,22.0,30.33,NW,315,0.0,0.0,82,0.00,,CLR,0.00,VWS V14.01,2013-01-09 13:10:00,
2013-01-09 07:15:00,26.6,21.9,30.32,NW,315,0.0,0.0,82,0.00,,CLR,0.00,VWS V14.01,2013-01-09 13:15:00,
2013-01-09 07:20:00,26.4,21.4,30.33,NW,315,0.0,0.0,81,0.00,,CLR,0.00,VWS V14.01,2013-01-09 13:20:00,
2013-01-09 07:25:00,26.2,21.2,30.33,NW,315,0.0,0.0,81,0.00,,CLR,0.00,VWS V14.01,2013-01-09 13:25:00,
2013-01-09 07:30:00,26.2,21.5,30.34,NW,315,0.0,0.0,82,0.00,,CLR,0.00,VWS V14.01,2013-01-09 13:30:00,
2013-01-09 07:35:00,26.0,21.3,30.34,NW,315,0.0,0.0,82,0.00,,CLR,0.00,VWS V14.01,2013-01-09 13:35:00,
2013-01-09 07:40:00,26.0,21.3,30.35,NW,315,0.0,0.0,82,0.00,,CLR,0.00,VWS V14.01,2013-01-09 13:40:00,
2013-01-09 07:45:00,26.0,21.3,30.35,SE,135,0.4,0.7,82,0.00,,CLR,0.00,VWS V14.01,2013-01-09 13:45:00,
2013-01-09 07:50:00,26.0,21.3,30.36,NE,45,0.0,0.4,82,0.00,,CLR,0.00,VWS V14.01,2013-01-09 13:50:00,
2013-01-09 07:55:00,26.0,21.6,30.36,North,0,0.0,0.0,83,0.00,,CLR,0.00,VWS V14.01,2013-01-09 13:55:00,
2013-01-09 08:05:00,26.2,21.8,30.36,North,0,0.0,0.0,83,0.00,,CLR,0.00,VWS V14.01,2013-01-09 14:05:00,
2013-01-09 08:10:00,26.4,22.0,30.36,North,0,0.0,0.0,83,0.00,,CLR,0.00,VWS V14.01,2013-01-09 14:10:00,
2013-01-09 08:15:00,26.4,22.0,30.36,ESE,112,0.4,0.4,83,0.00,,CLR,0.00,VWS V14.01,2013-01-09 14:15:00,
2013-01-09 08:20:00,26.4,22.0,30.37,SE,135,1.3,1.8,83,0.00,,CLR,0.00,VWS V14.01,2013-01-09 14:20:00,
2013-01-09 08:25:00,26.8,22.3,30.37,SE,135,1.8,1.8,83,0.00,,CLR,0.00,VWS V14.01,2013-01-09 14:25:00,
2013-01-09 08:30:00,26.9,22.4,30.38,SE,135,1.3,1.8,83,0.00,,CLR,0.00,VWS V14.01,2013-01-09 14:30:00,
2013-01-09 08:35:00,27.1,22.6,30.38,NNE,22,0.0,1.3,83,0.00,,CLR,0.00,VWS V14.01,2013-01-09 14:35:00,
2013-01-09 08:40:00,27.5,23.3,30.39,NNE,22,0.0,1.1,84,0.00,,CLR,0.00,VWS V14.01,2013-01-09 14:40:00,
2013-01-09 08:45:00,27.8,23.6,30.39,NNE,22,0.2,0.2,84,0.00,,CLR,0.00,VWS V14.01,2013-01-09 14:45:00,
2013-01-09 08:50:00,28.2,24.0,30.38,NNE,22,0.0,0.2,84,0.00,,CLR,0.00,VWS V14.01,2013-01-09 14:50:00,
2013-01-09 08:55:00,28.7,24.5,30.38,SE,135,1.8,1.8,84,0.00,,CLR,0.00,VWS V14.01,2013-01-09 14:55:00,
2013-01-09 09:05:00,29.6,25.4,30.39,SE,135,0.0,1.1,84,0.00,,CLR,0.00,VWS V14.01,2013-01-09 15:05:00,
2013-01-09 09:10:00,30.2,26.0,30.40,SE,135,0.7,1.6,84,0.00,,CLR,0.00,VWS V14.01,2013-01-09 15:10:00,
2013-01-09 09:15:00,31.1,26.8,30.39,NNE,22,0.0,0.7,84,0.00,,CLR,0.00,VWS V14.01,2013-01-09 15:15:00,
2013-01-09 09:20:00,32.2,27.9,30.39,NNE,22,0.0,0.0,84,0.00,,CLR,0.00,VWS V14.01,2013-01-09 15:20:00,
2013-01-09 09:25:00,33.1,28.8,30.39,SE,135,2.2,2.2,84,0.00,,CLR,0.00,VWS V14.01,2013-01-09 15:25:00,
2013-01-09 09:30:00,34.0,29.4,30.40,South,180,0.2,2.2,83,0.00,,CLR,0.00,VWS V14.01,2013-01-09 15:30:00,
2013-01-09 09:35:00,34.9,30.0,30.40,SSW,202,0.2,1.1,82,0.00,,CLR,0.00,VWS V14.01,2013-01-09 15:35:00,
2013-01-09 09:40:00,35.8,30.5,30.40,South,180,0.0,1.1,81,0.00,,CLR,0.00,VWS V14.01,2013-01-09 15:40:00,
2013-01-09 09:45:00,36.7,31.1,30.40,SSE,158,1.8,2.5,80,0.00,,CLR,0.00,VWS V14.01,2013-01-09 15:45:00,
2013-01-09 09:50:00,37.6,31.7,30.41,SSW,202,1.3,1.8,79,0.00,,CLR,0.00,VWS V14.01,2013-01-09 15:50:00,
2013-01-09 09:55:00,38.1,32.2,30.40,SSE,158,1.1,1.6,79,0.00,,CLR,0.00,VWS V14.01,2013-01-09 15:55:00,
2013-01-09 10:05:00,39.2,32.6,30.41,SW,225,0.7,1.3,77,0.00,,CLR,0.00,VWS V14.01,2013-01-09 16:05:00,
2013-01-09 10:10:00,39.7,32.8,30.41,SSW,202,0.4,1.6,76,0.00,,CLR,0.00,VWS V14.01,2013-01-09 16:10:00,
2013-01-09 10:15:00,40.1,32.8,30.41,South,180,0.0,0.7,75,0.00,,CLR,0.00,VWS V14.01,2013-01-09 16:15:00,
2013-01-09 10:20:00,40.4,32.8,30.41,SE,135,1.6,1.6,74,0.00,,CLR,0.00,VWS V14.01,2013-01-09 16:20:00,
2013-01-09 10:25:00,41.0,33.0,30.41,SE,135,0.4,1.6,73,0.00,,CLR,0.00,VWS V14.01,2013-01-09 16:25:00,
2013-01-09 10:30:00,41.3,33.0,30.40,SSE,158,0.0,0.4,72,0.00,,CLR,0.00,VWS V14.01,2013-01-09 16:30:00,
2013-01-09 10:35:00,41.7,33.7,30.40,North,0,0.0,0.9,73,0.00,,CLR,0.00,VWS V14.01,2013-01-09 16:35:00,
2013-01-09 10:40:00,42.2,34.2,30.40,NW,315,0.0,0.4,73,0.00,,CLR,0.00,VWS V14.01,2013-01-09 16:40:00,
2013-01-09 10:45:00,42.8,34.4,30.40,West,270,0.2,0.2,72,0.00,,CLR,0.00,VWS V14.01,2013-01-09 16:45:00,
2013-01-09 10:50:00,43.3,34.5,30.41,SE,135,1.3,1.3,71,0.00,,CLR,0.00,VWS V14.01,2013-01-09 16:50:00,
2013-01-09 10:55:00,43.7,34.6,30.41,ESE,112,0.4,1.6,70,0.00,,CLR,0.00,VWS V14.01,2013-01-09 16:55:00,
2013-01-09 11:05:00,44.0,34.1,30.41,NE,45,1.3,1.3,68,0.00,,CLR,0.00,VWS V14.01,2013-01-09 17:05:00,
2013-01-09 11:10:00,44.2,34.3,30.41,SSE,158,0.9,1.3,68,0.00,,CLR,0.00,VWS V14.01,2013-01-09 17:10:00,
2013-01-09 11:15:00,44.4,34.5,30.41,SSE,158,0.2,0.9,68,0.00,,CLR,0.00,VWS V14.01,2013-01-09 17:15:00,
2013-01-09 11:20:00,44.9,35.0,30.41,SE,135,0.2,0.7,68,0.00,,CLR,0.00,VWS V14.01,2013-01-09 17:20:00,
2013-01-09 11:25:00,45.1,34.4,30.41,SE,135,0.4,2.0,66,0.00,,CLR,0.00,VWS V14.01,2013-01-09 17:25:00,
2013-01-09 11:30:00,45.1,34.4,30.40,ENE,68,0.7,1.1,66,0.00,,CLR,0.00,VWS V14.01,2013-01-09 17:30:00,
2013-01-09 11:35:00,45.3,34.6,30.40,WSW,248,0.7,1.1,66,0.00,,CLR,0.00,VWS V14.01,2013-01-09 17:35:00,
2013-01-09 11:40:00,45.5,34.8,30.40,WNW,292,0.0,0.7,66,0.00,,CLR,0.00,VWS V14.01,2013-01-09 17:40:00,
2013-01-09 11:45:00,45.8,34.7,30.40,ESE,112,0.0,0.2,65,0.00,,CLR,0.00,VWS V14.01,2013-01-09 17:45:00,
2013-01-09 11:50:00,46.2,35.1,30.40,SE,135,1.1,1.1,65,0.00,,CLR,0.00,VWS V14.01,2013-01-09 17:50:00,
2013-01-09 11:55:00,46.4,34.9,30.39,SE,135,0.4,1.8,64,0.00,,CLR,0.00,VWS V14.01,2013-01-09 17:55:00,
2013-01-09 12:05:00,46.7,35.2,30.39,SE,135,0.4,1.1,64,0.00,,CLR,0.00,VWS V14.01,2013-01-09 18:05:00,
2013-01-09 12:10:00,47.1,35.6,30.39,SE,135,0.9,1.1,64,0.00,,CLR,0.00,VWS V14.01,2013-01-09 18:10:00,
2013-01-09 12:15:00,47.5,35.9,30.38,NW,315,0.0,0.9,64,0.00,,CLR,0.00,VWS V14.01,2013-01-09 18:15:00,
2013-01-09 12:20:00,47.6,35.6,30.38,ESE,112,1.1,1.1,63,0.00,,CLR,0.00,VWS V14.01,2013-01-09 18:20:00,
2013-01-09 12:25:00,47.8,35.8,30.38,SSE,158,0.4,1.8,63,0.00,,CLR,0.00,VWS V14.01,2013-01-09 18:25:00,
2013-01-09 12:30:00,48.0,35.6,30.38,ESE,112,2.2,2.2,62,0.00,,CLR,0.00,VWS V14.01,2013-01-09 18:30:00,
2013-01-09 12:35:00,48.0,35.6,30.37,ESE,112,0.7,2.2,62,0.00,,CLR,0.00,VWS V14.01,2013-01-09 18:35:00,
2013-01-09 12:40:00,48.2,35.4,30.37,East,90,0.0,1.1,61,0.00,,CLR,0.00,VWS V14.01,2013-01-09 18:40:00,
2013-01-09 12:45:00,48.4,35.2,30.37,ESE,112,0.4,1.8,60,0.00,,CLR,0.00,VWS V14.01,2013-01-09 18:45:00,
2013-01-09 12:49:00,48.4,35.6,30.36,ESE,112,0.7,1.1,61,0.00,,CLR,0.00,VWS V14.01,2013-01-09 18:49:00,
2013-01-09 12:50:00,48.4,35.6,30.36,NNE,22,0.4,1.1,61,0.00,,CLR,0.00,VWS V14.01,2013-01-09 18:50:00,
2013-01-09 12:55:00,48.7,35.5,30.36,SSE,158,0.4,1.3,60,0.00,,CLR,0.00,VWS V14.01,2013-01-09 18:55:00,
2013-01-09 13:05:00,49.3,36.0,30.36,SE,135,1.3,1.8,60,0.00,,CLR,0.00,VWS V14.01,2013-01-09 19:05:00,
2013-01-09 13:10:00,49.4,35.7,30.36,East,90,0.0,1.3,59,0.00,,CLR,0.00,VWS V14.01,2013-01-09 19:10:00,
2013-01-09 13:15:00,49.6,35.9,30.36,SE,135,1.1,1.1,59,0.00,,CLR,0.00,VWS V14.01,2013-01-09 19:15:00,
2013-01-09 13:20:00,49.8,35.6,30.36,SE,135,2.5,2.5,58,0.00,,CLR,0.00,VWS V14.01,2013-01-09 19:20:00,
2013-01-09 13:25:00,49.8,35.6,30.36,ESE,112,1.6,2.7,58,0.00,,CLR,0.00,VWS V14.01,2013-01-09 19:25:00,
2013-01-09 13:30:00,50.2,36.0,30.36,SE,135,0.2,1.6,58,0.00,,CLR,0.00,VWS V14.01,2013-01-09 19:30:00,
2013-01-09 13:39:00,50.7,36.0,30.35,SE,135,1.1,2.2,57,0.00,,CLR,0.00,VWS V14.01,2013-01-09 19:39:00,
2013-01-09 13:45:00,50.9,35.8,30.35,NE,45,0.9,2.0,56,0.00,,CLR,0.00,VWS V14.01,2013-01-09 19:45:00,
2013-01-09 13:50:00,51.2,36.1,30.36,NNE,22,0.0,0.9,56,0.00,,CLR,0.00,VWS V14.01,2013-01-09 19:50:00,
2013-01-09 13:55:00,51.4,35.8,30.36,SE,135,1.3,1.3,55,0.00,,CLR,0.00,VWS V14.01,2013-01-09 19:55:00,
2013-01-09 14:05:00,51.8,36.2,30.36,SE,135,1.8,2.2,55,0.00,,CLR,0.00,VWS V14.01,2013-01-09 20:05:00,
2013-01-09 14:10:00,51.8,35.7,30.36,NE,45,0.9,1.8,54,0.00,,CLR,0.00,VWS V14.01,2013-01-09 20:10:00,
2013-01-09 14:15:00,52.0,35.9,30.36,SE,135,0.9,1.3,54,0.00,,CLR,0.00,VWS V14.01,2013-01-09 20:15:00,
2013-01-09 14:20:00,52.1,35.5,30.36,NNW,338,0.0,1.1,53,0.00,,CLR,0.00,VWS V14.01,2013-01-09 20:20:00,
2013-01-09 14:25:00,52.3,35.7,30.36,East,90,0.9,1.1,53,0.00,,CLR,0.00,VWS V14.01,2013-01-09 20:25:00,
2013-01-09 14:30:00,52.5,35.9,30.36,South,180,0.4,1.8,53,0.00,,CLR,0.00,VWS V14.01,2013-01-09 20:30:00,
2013-01-09 14:39:00,52.7,35.6,30.36,SSE,158,1.1,1.3,52,0.00,,CLR,0.00,VWS V14.01,2013-01-09 20:39:00,
2013-01-09 14:45:00,52.7,35.6,30.36,ESE,112,3.4,3.4,52,0.00,,CLR,0.00,VWS V14.01,2013-01-09 20:45:00,
2013-01-09 14:50:00,52.7,35.6,30.36,SE,135,0.7,3.4,52,0.00,,CLR,0.00,VWS V14.01,2013-01-09 20:50:00,
2013-01-09 14:55:00,52.7,35.6,30.36,ESE,112,0.4,0.9,52,0.00,,CLR,0.00,VWS V14.01,2013-01-09 20:55:00,
2013-01-09 15:05:00,52.7,35.6,30.36,SSE,158,0.4,2.0,52,0.00,,CLR,0.00,VWS V14.01,2013-01-09 21:05:00,
2013-01-09 15:10:00,52.7,35.1,30.37,East,90,0.7,1.1,51,0.00,,CLR,0.00,VWS V14.01,2013-01-09 21:10:00,
2013-01-09 15:15:00,52.7,35.1,30.37,West,270,0.2,2.2,51,0.00,,CLR,0.00,VWS V14.01,2013-01-09 21:15:00,
2013-01-09 15:20:00,52.7,35.1,30.37,ESE,112,1.6,2.0,51,0.00,,CLR,0.00,VWS V14.01,2013-01-09 21:20:00,
2013-01-09 15:25:00,52.9,34.8,30.37,NE,45,1.1,1.6,50,0.00,,CLR,0.00,VWS V14.01,2013-01-09 21:25:00,
2013-01-09 15:30:00,52.7,34.6,30.37,SE,135,0.4,1.8,50,0.00,,CLR,0.00,VWS V14.01,2013-01-09 21:30:00,
2013-01-09 15:35:00,52.7,34.6,30.38,SE,135,0.9,1.8,50,0.00,,CLR,0.00,VWS V14.01,2013-01-09 21:35:00,
2013-01-09 15:40:00,52.7,34.6,30.38,SSE,158,0.9,2.2,50,0.00,,CLR,0.00,VWS V14.01,2013-01-09 21:40:00,
2013-01-09 15:45:00,52.7,34.6,30.38,SSE,158,0.7,2.0,50,0.00,,CLR,0.00,VWS V14.01,2013-01-09 21:45:00,
2013-01-09 15:55:00,52.3,34.2,30.38,SE,135,0.4,2.0,50,0.00,,CLR,0.00,VWS V14.01,2013-01-09 21:55:00,
2013-01-09 16:05:00,52.1,34.0,30.38,SSE,158,0.0,0.4,50,0.00,,CLR,0.00,VWS V14.01,2013-01-09 22:05:00,
2013-01-09 16:10:00,52.0,34.0,30.38,SSE,158,0.9,0.9,50,0.00,,CLR,0.00,VWS V14.01,2013-01-09 22:10:00,
2013-01-09 16:15:00,51.6,33.6,30.38,SE,135,1.1,1.1,50,0.00,,CLR,0.00,VWS V14.01,2013-01-09 22:15:00,
2013-01-09 16:20:00,51.4,33.4,30.37,SE,135,0.9,3.4,50,0.00,,CLR,0.00,VWS V14.01,2013-01-09 22:20:00,
2013-01-09 16:25:00,51.2,33.2,30.37,SE,135,0.2,1.6,50,0.00,,CLR,0.00,VWS V14.01,2013-01-09 22:25:00,
2013-01-09 16:30:00,51.1,33.1,30.37,SE,135,0.7,1.8,50,0.00,,CLR,0.00,VWS V14.01,2013-01-09 22:30:00,
2013-01-09 16:35:00,50.9,32.9,30.37,SE,135,0.4,0.7,50,0.00,,CLR,0.00,VWS V14.01,2013-01-09 22:35:00,
2013-01-09 16:40:00,50.5,33.1,30.38,ESE,112,0.7,1.1,51,0.00,,CLR,0.00,VWS V14.01,2013-01-09 22:40:00,
2013-01-09 16:45:00,50.2,32.8,30.37,SE,135,0.4,1.3,51,0.00,,CLR,0.00,VWS V14.01,2013-01-09 22:45:00,
2013-01-09 16:50:00,49.8,32.4,30.37,SE,135,0.0,0.4,51,0.00,,CLR,0.00,VWS V14.01,2013-01-09 22:50:00,
2013-01-09 16:55:00,49.6,32.2,30.38,SE,135,0.0,0.0,51,0.00,,CLR,0.00,VWS V14.01,2013-01-09 22:55:00,
2013-01-09 17:05:00,48.7,31.9,30.38,SE,135,0.0,0.4,52,0.00,,CLR,0.00,VWS V14.01,2013-01-09 23:05:00,
2013-01-09 17:15:00,47.8,31.5,30.38,SE,135,0.0,0.0,53,0.00,,CLR,0.00,VWS V14.01,2013-01-09 23:15:00,
2013-01-09 17:20:00,47.3,31.0,30.38,SE,135,0.0,0.0,53,0.00,,CLR,0.00,VWS V14.01,2013-01-09 23:20:00,
2013-01-09 17:25:00,46.7,31.0,30.37,South,180,0.0,0.2,54,0.00,,CLR,0.00,VWS V14.01,2013-01-09 23:25:00,
2013-01-09 17:30:00,46.4,30.7,30.38,SSE,158,0.0,0.0,54,0.00,,CLR,0.00,VWS V14.01,2013-01-09 23:30:00,
2013-01-09 17:35:00,45.8,30.6,30.37,SE,135,0.0,0.9,55,0.00,,CLR,0.00,VWS V14.01,2013-01-09 23:35:00,
2013-01-09 17:40:00,45.5,30.3,30.37,ENE,68,0.2,0.4,55,0.00,,CLR,0.00,VWS V14.01,2013-01-09 23:40:00,
2013-01-09 17:45:00,45.1,30.4,30.38,NE,45,0.0,0.2,56,0.00,,CLR,0.00,VWS V14.01,2013-01-09 23:45:00,
2013-01-09 17:50:00,44.8,30.1,30.38,NE,45,0.0,0.0,56,0.00,,CLR,0.00,VWS V14.01,2013-01-09 23:50:00,
2013-01-09 17:55:00,44.4,30.1,30.38,NE,45,0.0,0.0,57,0.00,,CLR,0.00,VWS V14.01,2013-01-09 23:55:00,
2013-01-09 18:05:00,43.7,29.5,30.39,NE,45,0.0,0.0,57,0.00,,CLR,0.00,VWS V14.01,2013-01-10 00:05:00,
2013-01-09 18:10:00,43.3,29.1,30.39,NE,45,0.0,0.0,57,0.00,,CLR,0.00,VWS V14.01,2013-01-10 00:10:00,
2013-01-09 18:15:00,43.1,29.3,30.39,NNE,22,0.0,0.0,58,0.00,,CLR,0.00,VWS V14.01,2013-01-10 00:15:00,
2013-01-09 18:20:00,42.8,29.1,30.39,East,90,0.4,0.4,58,0.00,,CLR,0.00,VWS V14.01,2013-01-10 00:20:00,
2013-01-09 18:25:00,42.6,29.3,30.38,East,90,0.0,0.4,59,0.00,,CLR,0.00,VWS V14.01,2013-01-10 00:25:00,
2013-01-09 18:30:00,42.2,28.9,30.39,ENE,68,0.0,0.0,59,0.00,,CLR,0.00,VWS V14.01,2013-01-10 00:30:00,
2013-01-09 18:35:00,42.1,29.2,30.38,NNW,338,1.1,1.1,60,0.00,,CLR,0.00,VWS V14.01,2013-01-10 00:35:00,
2013-01-09 18:40:00,41.9,29.0,30.38,NNW,338,0.0,1.1,60,0.00,,CLR,0.00,VWS V14.01,2013-01-10 00:40:00,
2013-01-09 18:45:00,41.7,29.3,30.38,NNW,338,0.0,0.4,61,0.00,,CLR,0.00,VWS V14.01,2013-01-10 00:45:00,
2013-01-09 18:50:00,41.5,29.1,30.38,NNW,338,0.0,0.0,61,0.00,,CLR,0.00,VWS V14.01,2013-01-10 00:50:00,
2013-01-09 18:55:00,41.3,28.9,30.38,NNW,338,0.0,0.0,61,0.00,,CLR,0.00,VWS V14.01,2013-01-10 00:55:00,
2013-01-09 19:05:00,41.0,29.0,30.38,NNW,338,0.0,0.9,62,0.00,,CLR,0.00,VWS V14.01,2013-01-10 01:05:00,
2013-01-09 19:15:00,40.6,28.6,30.38,NNW,338,0.0,0.0,62,0.00,,CLR,0.00,VWS V14.01,2013-01-10 01:15:00,
2013-01-09 19:20:00,40.4,28.8,30.39,NNW,338,0.0,0.0,63,0.00,,CLR,0.00,VWS V14.01,2013-01-10 01:20:00,
2013-01-09 19:25:00,40.1,28.5,30.38,ENE,68,0.0,0.9,63,0.00,,CLR,0.00,VWS V14.01,2013-01-10 01:25:00,
2013-01-09 19:30:00,39.7,28.1,30.39,NNW,338,0.7,0.7,63,0.00,,CLR,0.00,VWS V14.01,2013-01-10 01:30:00,
2013-01-09 19:35:00,39.7,28.1,30.38,NNW,338,0.0,0.7,63,0.00,,CLR,0.00,VWS V14.01,2013-01-10 01:35:00,
2013-01-09 19:40:00,39.4,27.9,30.38,NNW,338,0.0,0.0,63,0.00,,CLR,0.00,VWS V14.01,2013-01-10 01:40:00,
2013-01-09 19:45:00,39.4,28.2,30.38,NNW,338,0.0,0.0,64,0.00,,CLR,0.00,VWS V14.01,2013-01-10 01:45:00,
2013-01-09 19:50:00,39.0,27.9,30.38,NNW,338,0.0,0.0,64,0.00,,CLR,0.00,VWS V14.01,2013-01-10 01:50:00,
2013-01-09 19:55:00,39.0,27.9,30.38,NNE,22,0.0,0.0,64,0.00,,CLR,0.00,VWS V14.01,2013-01-10 01:55:00,
2013-01-09 20:05:00,38.5,27.8,30.38,NNW,338,0.0,0.0,65,0.00,,CLR,0.00,VWS V14.01,2013-01-10 02:05:00,
2013-01-09 20:10:00,38.3,27.6,30.38,NNW,338,0.0,0.4,65,0.00,,CLR,0.00,VWS V14.01,2013-01-10 02:10:00,
2013-01-09 20:20:00,37.9,27.6,30.38,NNW,338,0.4,0.4,66,0.00,,CLR,0.00,VWS V14.01,2013-01-10 02:20:00,
2013-01-09 20:25:00,37.7,27.8,30.38,NNE,22,0.0,1.1,67,0.00,,CLR,0.00,VWS V14.01,2013-01-10 02:25:00,
2013-01-09 20:30:00,37.7,27.8,30.38,North,0,0.0,0.0,67,0.00,,CLR,0.00,VWS V14.01,2013-01-10 02:30:00,
2013-01-09 20:35:00,37.6,27.6,30.38,NNW,338,0.0,0.0,67,0.00,,CLR,0.00,VWS V14.01,2013-01-10 02:35:00,
2013-01-09 20:40:00,37.4,27.1,30.38,NNW,338,0.0,0.0,66,0.00,,CLR,0.00,VWS V14.01,2013-01-10 02:40:00,
2013-01-09 20:45:00,37.2,26.9,30.38,NNW,338,0.0,0.0,66,0.00,,CLR,0.00,VWS V14.01,2013-01-10 02:45:00,
2013-01-09 20:50:00,37.0,27.1,30.38,NNW,338,0.0,0.0,67,0.00,,CLR,0.00,VWS V14.01,2013-01-10 02:50:00,
2013-01-09 20:55:00,36.8,26.9,30.38,NNE,22,0.0,0.0,67,0.00,,CLR,0.00,VWS V14.01,2013-01-10 02:55:00,
2013-01-09 21:05:00,36.5,26.6,30.38,NNE,22,0.0,0.0,67,0.00,,CLR,0.00,VWS V14.01,2013-01-10 03:05:00,
2013-01-09 21:10:00,36.1,26.2,30.38,North,0,0.0,0.0,67,0.00,,CLR,0.00,VWS V14.01,2013-01-10 03:10:00,
2013-01-09 21:15:00,36.1,26.6,30.38,NNE,22,0.0,0.0,68,0.00,,CLR,0.00,VWS V14.01,2013-01-10 03:15:00,
2013-01-09 21:25:00,35.8,26.6,30.38,North,0,0.0,0.0,69,0.00,,CLR,0.00,VWS V14.01,2013-01-10 03:25:00,
2013-01-09 21:30:00,35.6,26.5,30.38,ENE,68,0.0,0.2,69,0.00,,CLR,0.00,VWS V14.01,2013-01-10 03:30:00,
2013-01-09 21:35:00,35.6,26.5,30.38,ENE,68,0.0,0.2,69,0.00,,CLR,0.00,VWS V14.01,2013-01-10 03:35:00,
2013-01-09 21:40:00,35.6,26.8,30.38,SE,135,0.0,0.2,70,0.00,,CLR,0.00,VWS V14.01,2013-01-10 03:40:00,
2013-01-09 21:45:00,35.6,26.8,30.37,ENE,68,0.9,0.9,70,0.00,,CLR,0.00,VWS V14.01,2013-01-10 03:45:00,
2013-01-09 21:50:00,35.8,27.0,30.37,NNE,22,0.0,0.9,70,0.00,,CLR,0.00,VWS V14.01,2013-01-10 03:50:00,
2013-01-09 21:55:00,35.9,27.1,30.37,SSE,158,0.2,1.8,70,0.00,,CLR,0.00,VWS V14.01,2013-01-10 03:55:00,
2013-01-09 22:05:00,36.5,27.7,30.37,East,90,0.7,0.7,70,0.00,,CLR,0.00,VWS V14.01,2013-01-10 04:05:00,
2013-01-09 22:10:00,36.8,28.0,30.37,ESE,112,0.7,1.6,70,0.00,,CLR,0.00,VWS V14.01,2013-01-10 04:10:00,
2013-01-09 22:15:00,37.6,28.4,30.37,SE,135,0.9,1.1,69,0.00,,CLR,0.00,VWS V14.01,2013-01-10 04:15:00,
2013-01-09 22:20:00,37.9,28.6,30.36,NW,315,0.4,1.3,69,0.00,,CLR,0.00,VWS V14.01,2013-01-10 04:20:00,
2013-01-09 22:25:00,37.9,28.3,30.36,NE,45,0.9,0.9,68,0.00,,CLR,0.00,VWS V14.01,2013-01-10 04:25:00,
2013-01-09 22:30:00,37.9,28.3,30.36,East,90,0.2,1.3,68,0.00,,CLR,0.00,VWS V14.01,2013-01-10 04:30:00,
2013-01-09 22:35:00,37.7,28.1,30.36,ESE,112,0.4,0.7,68,0.00,,CLR,0.00,VWS V14.01,2013-01-10 04:35:00,
2013-01-09 22:40:00,37.6,28.0,30.36,ESE,112,0.4,1.1,68,0.00,,CLR,0.00,VWS V14.01,2013-01-10 04:40:00,
2013-01-09 22:45:00,37.6,28.0,30.35,ESE,112,0.4,0.4,68,0.00,,CLR,0.00,VWS V14.01,2013-01-10 04:45:00,
2013-01-09 22:55:00,37.2,27.3,30.35,SSE,158,0.2,1.1,67,0.00,,CLR,0.00,VWS V14.01,2013-01-10 04:55:00,
2013-01-09 23:05:00,37.0,27.1,30.34,SW,225,0.7,2.5,67,0.00,,CLR,0.00,VWS V14.01,2013-01-10 05:05:00,
2013-01-09 23:10:00,37.2,27.3,30.35,East,90,0.0,1.1,67,0.00,,CLR,0.00,VWS V14.01,2013-01-10 05:10:00,
2013-01-09 23:20:00,37.4,27.5,30.35,SE,135,0.4,0.9,67,0.00,,CLR,0.00,VWS V14.01,2013-01-10 05:20:00,
2013-01-09 23:30:00,37.6,27.3,30.35,South,180,0.7,1.1,66,0.00,,CLR,0.00,VWS V14.01,2013-01-10 05:30:00,
2013-01-09 23:35:00,37.6,27.6,30.34,WNW,292,0.0,1.1,67,0.00,,CLR,0.00,VWS V14.01,2013-01-10 05:35:00,
2013-01-09 23:40:00,37.6,27.6,30.34,South,180,0.0,0.7,67,0.00,,CLR,0.00,VWS V14.01,2013-01-10 05:40:00,
2013-01-09 23:45:00,37.7,27.4,30.34,SSE,158,0.0,0.4,66,0.00,,CLR,0.00,VWS V14.01,2013-01-10 05:45:00,
2013-01-09 23:50:00,37.7,27.4,30.33,SE,135,0.4,0.4,66,0.00,,CLR,0.00,VWS V14.01,2013-01-10 05:50:00,
2013-01-09 23:55:00,37.6,27.3,30.33,NE,45,0.0,0.4,66,0.00,,CLR,0.00,VWS V14.01,2013-01-10 05:55:00,